Couvert avec pluie légère
Ciel couvert
Partiellement nuageux avec quelques cirrus
Ciel couvert
Couvert avec pluie légère
Partiellement nuageux avec quelques cirrus
Partiellement nuageux et quelques cirrus
(°C)
(°C)
SSO
SSO
SSO
SO
SO
SO
SO
(km/h)
9-24
13-26
13-26
13-24
13-26
12-25
11-25
(mm)
0.1
0
0
0
0.1
0
0
(%)
57
50
29
8
25
22
42

Élévation du soleil

/ -0.1°
sun-icon
UV 1
05:25
19:44
Gibbeuse croissante (142°)
15:56
04:36

METAR pour 52.17°N 20.97°E (EPWA)

Heure Conditions Température/
Point de rosée
Vent Visibilité Météo Nuages Pression Changement Brut
VFR 4°C / 3°C 170º 5kt 9700m - Scattered Clouds 1100ft 1003 Temporary: Broken Clouds 1200ft. EPWA 200300Z 17005KT 9999 SCT011 04/03 Q1003 TEMPO BKN012
VFR 5°C / 4°C 180º 4kt 9700m - Scattered Clouds 1200ft
Broken Clouds 3600ft
1003 No Significant change EPWA 200230Z 18004KT 9999 SCT012 BKN036 05/04 Q1003 NOSIG
VFR 5°C / 4°C 170º 6kt 9700m Light Rain 1.00mm precipitation Few Clouds 1400ft
Broken Clouds 3300ft
1003 Temporary: Broken Clouds 1400ft. EPWA 200200Z 17006KT 9999 -RA FEW014 BKN033 05/04 Q1003 TEMPO BKN014
MVFR 5°C / 4°C 170º 5kt 9700m Light Rain 1.00mm precipitation Broken Clouds 1500ft 1003 Temporary: Broken Clouds 1400ft. EPWA 200130Z 17005KT 9999 -RA BKN015 05/04 Q1003 TEMPO BKN014
MVFR 5°C / 4°C 170º 5kt 9700m Light Rain 1.00mm precipitation Broken Clouds 2000ft
Overcast 3600ft
1003 No Significant change EPWA 200100Z 17005KT 9999 -RA BKN020 OVC036 05/04 Q1003 NOSIG
MVFR 5°C / 4°C 170º 6kt 9700m Light Rain 1.00mm precipitation Broken Clouds 1900ft 1003 No Significant change EPWA 200030Z 17006KT 9999 -RA BKN019 05/04 Q1003 NOSIG
MVFR 5°C / 4°C 160º 8kt 9700m Light Rain 1.00mm precipitation Broken Clouds 2200ft 1003 No Significant change EPWA 200000Z 16008KT 9999 -RA BKN022 05/04 Q1003 NOSIG
MVFR 5°C / 4°C 150º 7kt 9700m Light Rain 1.00mm precipitation Broken Clouds 2500ft 1003 No Significant change EPWA 192330Z 15007KT 9999 -RA BKN025 05/04 Q1003 NOSIG
VFR 5°C / 4°C 150º 5kt 9700m Light Rain 1.00mm precipitation Broken Clouds 4000ft 1004 No Significant change EPWA 192300Z 15005KT 9999 -RA BKN040 05/04 Q1004 NOSIG
VFR 4°C / 3°C 170º variable 140º to 200º 6kt 9700m Light Rain 1.00mm precipitation Broken Clouds 3200ft 1004 No Significant change EPWA 192230Z 17006KT 140V200 9999 -RA BKN032 04/03 Q1004 NOSIG
VFR 4°C / 3°C 160º 7kt 9700m Light Rain 1.00mm precipitation Clear 1004 No Significant change EPWA 192200Z 16007KT 9999 -RA NSC 04/03 Q1004 NOSIG
VFR 4°C / 3°C 160º 8kt 9700m - Clouds and Visibility OK 1004 No Significant change EPWA 192130Z 16008KT CAVOK 04/03 Q1004 NOSIG
VFR 4°C / 3°C 150º 8kt 9700m - Clouds and Visibility OK 1004 No Significant change EPWA 192100Z 15008KT CAVOK 04/03 Q1004 NOSIG
VFR 4°C / 3°C 150º 7kt 9700m - Clouds and Visibility OK 1004 No Significant change EPWA 192030Z 15007KT CAVOK 04/03 Q1004 NOSIG
VFR 4°C / 3°C 150º 8kt 9700m - Few Clouds 4000ft 1004 No Significant change EPWA 192000Z 15008KT 9999 FEW040 04/03 Q1004 NOSIG
VFR 5°C / 3°C 150º 6kt 9700m - Broken Clouds 3600ft 1004 No Significant change EPWA 191930Z 15006KT 9999 BKN036 05/03 Q1004 NOSIG
VFR 5°C / 3°C 170º 4kt 9700m - Broken Clouds 3700ft 1004 No Significant change EPWA 191900Z 17004KT 9999 BKN037 05/03 Q1004 NOSIG
VFR 5°C / 3°C 170º 5kt 9700m - Clouds and Visibility OK 1004 No Significant change EPWA 191830Z 17005KT CAVOK 05/03 Q1004 NOSIG
VFR 5°C / 3°C 170º 6kt 9700m - Clouds and Visibility OK 1004 No Significant change EPWA 191800Z 17006KT CAVOK 05/03 Q1004 NOSIG
VFR 5°C / 3°C 170º 5kt 9700m - Clouds and Visibility OK 1004 No Significant change EPWA 191730Z 17005KT CAVOK 05/03 Q1004 NOSIG
VFR 6°C / 3°C 190º 5kt 9700m - Few Clouds 3400ft 1004 No Significant change EPWA 191700Z 19005KT 9999 FEW034CB 06/03 Q1004 NOSIG
VFR 5°C / 3°C 210º variable 180º to 240º 6kt 9700m Light Showers Rain 3.00mm precipitation Broken Clouds 3400ft 1005 Temporary: Showers Rain . EPWA 191630Z 21006KT 180V240 9999 -SHRA BKN034CB 05/03 Q1005 TEMPO SHRA
MVFR 5°C / 3°C 270º variable 230º to 310º 6kt 9700m Light Showers Rain 3.00mm precipitation Few Clouds 1200ft
Broken Clouds 2300ft
1005 Temporary: Showers Rain . EPWA 191600Z 27006KT 230V310 9999 -SHRA FEW012 BKN023CB 05/03 Q1005 RESHRA TEMPO SHRA
IFR 4°C / 3°C 240º 13kt 4100m Showers Rain 3.00mm precipitation Few Clouds 800ft
Broken Clouds 2300ft
1006 Becoming: Visibility 9999. NSW EPWA 191530Z 24013KT 4100 SHRA FEW008 BKN023CB 04/03 Q1006 BECMG 9999 NSW

VFR

4°C / 3°C

[Plus]
Vent 170º 5kt
Visibilité 9700m
Météo -
Nuages Scattered Clouds 1100ft
Pression 1003
Changement Temporary: Broken Clouds 1200ft.
Brut EPWA 200300Z 17005KT 9999 SCT011 04/03 Q1003 TEMPO BKN012

VFR

5°C / 4°C

[Plus]
Vent 180º 4kt
Visibilité 9700m
Météo -
Nuages Scattered Clouds 1200ft
Broken Clouds 3600ft
Pression 1003
Changement No Significant change
Brut EPWA 200230Z 18004KT 9999 SCT012 BKN036 05/04 Q1003 NOSIG

VFR

5°C / 4°C

[Plus]
Vent 170º 6kt
Visibilité 9700m
Météo Light Rain 1.00mm precipitation
Nuages Few Clouds 1400ft
Broken Clouds 3300ft
Pression 1003
Changement Temporary: Broken Clouds 1400ft.
Brut EPWA 200200Z 17006KT 9999 -RA FEW014 BKN033 05/04 Q1003 TEMPO BKN014

MVFR

5°C / 4°C

[Plus]
Vent 170º 5kt
Visibilité 9700m
Météo Light Rain 1.00mm precipitation
Nuages Broken Clouds 1500ft
Pression 1003
Changement Temporary: Broken Clouds 1400ft.
Brut EPWA 200130Z 17005KT 9999 -RA BKN015 05/04 Q1003 TEMPO BKN014

MVFR

5°C / 4°C

[Plus]
Vent 170º 5kt
Visibilité 9700m
Météo Light Rain 1.00mm precipitation
Nuages Broken Clouds 2000ft
Overcast 3600ft
Pression 1003
Changement No Significant change
Brut EPWA 200100Z 17005KT 9999 -RA BKN020 OVC036 05/04 Q1003 NOSIG

MVFR

5°C / 4°C

[Plus]
Vent 170º 6kt
Visibilité 9700m
Météo Light Rain 1.00mm precipitation
Nuages Broken Clouds 1900ft
Pression 1003
Changement No Significant change
Brut EPWA 200030Z 17006KT 9999 -RA BKN019 05/04 Q1003 NOSIG

MVFR

5°C / 4°C

[Plus]
Vent 160º 8kt
Visibilité 9700m
Météo Light Rain 1.00mm precipitation
Nuages Broken Clouds 2200ft
Pression 1003
Changement No Significant change
Brut EPWA 200000Z 16008KT 9999 -RA BKN022 05/04 Q1003 NOSIG

MVFR

5°C / 4°C

[Plus]
Vent 150º 7kt
Visibilité 9700m
Météo Light Rain 1.00mm precipitation
Nuages Broken Clouds 2500ft
Pression 1003
Changement No Significant change
Brut EPWA 192330Z 15007KT 9999 -RA BKN025 05/04 Q1003 NOSIG

VFR

5°C / 4°C

[Plus]
Vent 150º 5kt
Visibilité 9700m
Météo Light Rain 1.00mm precipitation
Nuages Broken Clouds 4000ft
Pression 1004
Changement No Significant change
Brut EPWA 192300Z 15005KT 9999 -RA BKN040 05/04 Q1004 NOSIG

VFR

4°C / 3°C

[Plus]
Vent 170º variable 140º to 200º 6kt
Visibilité 9700m
Météo Light Rain 1.00mm precipitation
Nuages Broken Clouds 3200ft
Pression 1004
Changement No Significant change
Brut EPWA 192230Z 17006KT 140V200 9999 -RA BKN032 04/03 Q1004 NOSIG

VFR

4°C / 3°C

[Plus]
Vent 160º 7kt
Visibilité 9700m
Météo Light Rain 1.00mm precipitation
Nuages Clear
Pression 1004
Changement No Significant change
Brut EPWA 192200Z 16007KT 9999 -RA NSC 04/03 Q1004 NOSIG

VFR

4°C / 3°C

[Plus]
Vent 160º 8kt
Visibilité 9700m
Météo -
Nuages Clouds and Visibility OK
Pression 1004
Changement No Significant change
Brut EPWA 192130Z 16008KT CAVOK 04/03 Q1004 NOSIG

VFR

4°C / 3°C

[Plus]
Vent 150º 8kt
Visibilité 9700m
Météo -
Nuages Clouds and Visibility OK
Pression 1004
Changement No Significant change
Brut EPWA 192100Z 15008KT CAVOK 04/03 Q1004 NOSIG

VFR

4°C / 3°C

[Plus]
Vent 150º 7kt
Visibilité 9700m
Météo -
Nuages Clouds and Visibility OK
Pression 1004
Changement No Significant change
Brut EPWA 192030Z 15007KT CAVOK 04/03 Q1004 NOSIG

VFR

4°C / 3°C

[Plus]
Vent 150º 8kt
Visibilité 9700m
Météo -
Nuages Few Clouds 4000ft
Pression 1004
Changement No Significant change
Brut EPWA 192000Z 15008KT 9999 FEW040 04/03 Q1004 NOSIG

VFR

5°C / 3°C

[Plus]
Vent 150º 6kt
Visibilité 9700m
Météo -
Nuages Broken Clouds 3600ft
Pression 1004
Changement No Significant change
Brut EPWA 191930Z 15006KT 9999 BKN036 05/03 Q1004 NOSIG

VFR

5°C / 3°C

[Plus]
Vent 170º 4kt
Visibilité 9700m
Météo -
Nuages Broken Clouds 3700ft
Pression 1004
Changement No Significant change
Brut EPWA 191900Z 17004KT 9999 BKN037 05/03 Q1004 NOSIG

VFR

5°C / 3°C

[Plus]
Vent 170º 5kt
Visibilité 9700m
Météo -
Nuages Clouds and Visibility OK
Pression 1004
Changement No Significant change
Brut EPWA 191830Z 17005KT CAVOK 05/03 Q1004 NOSIG

VFR

5°C / 3°C

[Plus]
Vent 170º 6kt
Visibilité 9700m
Météo -
Nuages Clouds and Visibility OK
Pression 1004
Changement No Significant change
Brut EPWA 191800Z 17006KT CAVOK 05/03 Q1004 NOSIG

VFR

5°C / 3°C

[Plus]
Vent 170º 5kt
Visibilité 9700m
Météo -
Nuages Clouds and Visibility OK
Pression 1004
Changement No Significant change
Brut EPWA 191730Z 17005KT CAVOK 05/03 Q1004 NOSIG

VFR

6°C / 3°C

[Plus]
Vent 190º 5kt
Visibilité 9700m
Météo -
Nuages Few Clouds 3400ft
Pression 1004
Changement No Significant change
Brut EPWA 191700Z 19005KT 9999 FEW034CB 06/03 Q1004 NOSIG

VFR

5°C / 3°C

[Plus]
Vent 210º variable 180º to 240º 6kt
Visibilité 9700m
Météo Light Showers Rain 3.00mm precipitation
Nuages Broken Clouds 3400ft
Pression 1005
Changement Temporary: Showers Rain .
Brut EPWA 191630Z 21006KT 180V240 9999 -SHRA BKN034CB 05/03 Q1005 TEMPO SHRA

MVFR

5°C / 3°C

[Plus]
Vent 270º variable 230º to 310º 6kt
Visibilité 9700m
Météo Light Showers Rain 3.00mm precipitation
Nuages Few Clouds 1200ft
Broken Clouds 2300ft
Pression 1005
Changement Temporary: Showers Rain .
Brut EPWA 191600Z 27006KT 230V310 9999 -SHRA FEW012 BKN023CB 05/03 Q1005 RESHRA TEMPO SHRA

IFR

4°C / 3°C

[Plus]
Vent 240º 13kt
Visibilité 4100m
Météo Showers Rain 3.00mm precipitation
Nuages Few Clouds 800ft
Broken Clouds 2300ft
Pression 1006
Changement Becoming: Visibility 9999. NSW
Brut EPWA 191530Z 24013KT 4100 SHRA FEW008 BKN023CB 04/03 Q1006 BECMG 9999 NSW

TAF pour 52.17°N 20.97°E (EPWA)

From till


From till Wind 190º 6kt. Visibility 9700m. Broken Clouds 2500ft.
Temporarly from till Light Showers Rain . Broken Clouds 2000ft.
With 40% probability, from till Broken Clouds 1200ft.
With 40% probability, Temporarly from till Showers Rain . Broken Clouds 2500ft.
Becoming from till
With 40% probability, from till Broken Clouds 1200ft.

Brut: TAF EPWA 200230Z 2003/2103 19006KT 9999 BKN025 TEMPO 2003/2021 -SHRA BKN020CB PROB40 2003/2007 BKN012 PROB40 TEMPO 2012/2018 SHRA BKN025CB BECMG 2012/2014 01010KT PROB40 2022/2103 BKN012

Radar et prévision de précipitation à court terme pour 52.17°N 20.97°E

Bruine
Légère
Modéré
Fort
Très fort
Grêle

Le marqueur est placé sur 52.17°N 20.97°E. Cette animation montre le radar des précipitations pour la plage horaire sélectionnée, ainsi qu'une 2h prévision. Les croix orange indiquent la foudre. Données fournies par nowcast.de (disponibles aux États-Unis, en Europe et en Australie). Une bruine ou une légère chute de neige peut être invisible pour le radar. L'intensité des précipitations est codée par couleur, allant du turquoise au rouge.

Les images satellites et les pluies actuelles pour 52.17°N 20.97°E

Le marqueur est placé sur 52.17°N 20.97°E. [Plus]

L'image satellite en temps réel combine la lumière visible pendant la journée et le rayonnement infrarouge pendant la nuit. La nuit, l'image n'est pas sombre car le rayonnement infrarouge permet de détecter les différences de température. Malheureusement, les nuages bas et le brouillard sont difficiles à distinguer des températures au sol et peuvent donc être presque invisibles pendant la nuit. Les images des satellites Météosat pour l'Europe sont mises à jour en temps réel toutes les 5 minutes. Les images GOES-16/GOES-17 (Amérique du Nord et du Sud) et Himawari (Asie) sont mises à jour toutes les 10 minutes.

Les précipitations sont estimées à partir de radars et de satellites. Les estimations des précipitations par satellite sont moins précises la nuit que le jour.

© 2024 meteoblue, NOAA Satellites GOES-16 and EUMETSAT. Données de foudre fournies par nowcast.

Retour vers le haut
×
Salut,
Il semble que vous utilisiez un logiciel antipub.

La publicité est essentielle pour maintenir notre site web gratuit avec des détails et précision uniques.

Veuillez mettre www.meteoblue.com sur la liste blanche de votre bloqueur de publicité ou envisager d'acheter l'un de nos produits :

Vous avez déjà un abonnement ?
Dans ce cas, veuillez vous connecter.